[[{"header":{"parameterUnit":"m.s-1","parameterCategory":1,"la1":30.2992,"la2":30.254,"lo1":-89.0895,"lo2":-89.0443,"dy":0.0025,"dx":0.0025,"nx":19,"ny":19,"refTime":"2026-04-18T09:00:00:Z","depth":0,"parameterNumber":2,"parameterNumberName":"U-component_of_WINDS"},"data":[0,0,0,0.526,0.5261,0.5286,0.5286,0.5312,0.5312,0,0,0,0,0,0,0,0,0,0,0,0.525,0.525,0.526,0.5261,0.5286,0.5286,0.5312,0.5312,0,0,0,0,0,0,0,0,0,0,0,0.525,0.525,0.525,0.5261,0.5286,0.5286,0.5312,0.5295,0,0,0,0,0,0,0,0,0,0,0.5272,0.5258,0.525,0.525,0.5261,0.5286,0.5286,0.5294,0.5296,0.5298,0,0.5299,0,0.5306,0.5313,0.5313,0,0,0,0.5263,0.5257,0.5267,0.525,0.5261,0.5286,0.5275,0.5295,0.5297,0.53,0.5299,0.5301,0.5306,0.5313,0.5313,0.5318,0.5317,0,0,0.5262,0.5252,0.5265,0.5268,0.5264,0.5274,0.5276,0.5296,0.5295,0.53,0.5301,0.5307,0.5314,0.5314,0.5318,0.5318,0,0,0,0.5256,0.5251,0.5261,0.5267,0.5272,0.5275,0.5277,0.5294,0.5298,0.5302,0.5307,0.5314,0.5314,0.5318,0.5318,0.5304,0,0,0,0.5256,0.5248,0.526,0.5254,0.5271,0.5283,0.5274,0.5297,0.5299,0.5307,0.5314,0.5314,0.5318,0.5318,0.5305,0.5299,0,0,0,0.5249,0.5247,0.525,0.5254,0.5264,0.5283,0.5289,0.5297,0.5302,0.5313,0.5314,0.5318,0.5318,0.5305,0.53,0.5298,0,0,0,0.5239,0.5237,0.5249,0.5249,0.5264,0.5275,0.5288,0.5297,0.5305,0.5314,0.5318,0.5318,0.5306,0.5301,0.5298,0.5294,0.5291,0,0,0.5231,0.5236,0.5236,0.5248,0.5255,0.5272,0.5276,0.5292,0.5301,0.5311,0.5312,0.5305,0.53,0.5298,0.5279,0.5277,0,0,0,0.523,0.5231,0.5235,0.5242,0.5254,0.5264,0.5281,0.5286,0.5296,0.5305,0.5303,0.5301,0.53,0.5298,0.5296,0.5296,0.5316,0.5317,0.5317,0.5205,0.5218,0.5219,0.5235,0.5242,0.5259,0.5265,0.5276,0.5287,0.5286,0.5289,0.5276,0.5274,0.5273,0.5272,0.5288,0.5288,0.5288,0.5287,0.5194,0.5196,0.5211,0.5218,0.5231,0.5237,0.5253,0.526,0.5267,0.5275,0.5275,0.5283,0.527,0.527,0.5287,0.5287,0.5287,0.5287,0.5287,0.5179,0.5182,0.519,0.5202,0.5209,0.5225,0.5231,0.5243,0.5254,0.5253,0.5258,0.5258,0.526,0.5255,0.5255,0.5254,0.5254,0.5254,0.5254,0.516,0.5169,0.5173,0.5186,0.5192,0.5202,0.5219,0.5225,0.5235,0.5243,0.5243,0.5253,0.5266,0.527,0.5254,0.5254,0.5254,0.5254,0.5254,0.5144,0.5149,0.5156,0.5162,0.5178,0.5185,0.52,0.5212,0.5218,0.5221,0.5231,0.5239,0.5245,0.5246,0.5249,0.5229,0.5229,0.5229,0.5229,0.513,0.5135,0.5144,0.5153,0.5164,0.5178,0.5184,0.5197,0.5211,0.5216,0.5221,0.5225,0.5226,0.5231,0.5233,0.5235,0.5212,0.5212,0.5212,0.5121,0.5127,0.513,0.5145,0.5159,0.517,0.5176,0.5186,0.5203,0.5212,0.522,0.5221,0.5228,0.523,0.5239,0.5241,0.5247,0,0]},{"header":{"parameterUnit":"m.s-1","parameterCategory":1,"la1":30.2992,"la2":30.254,"lo1":-89.0895,"lo2":-89.0443,"dy":0.0025,"dx":0.0025,"nx":19,"ny":19,"refTime":"2026-04-18T09:00:00:Z","depth":0,"parameterNumber":3,"parameterNumberName":"V-component_of_WINDS"},"data":[0,0,0,4.6573,4.6573,4.6568,4.6568,4.6561,4.6561,0,0,0,0,0,0,0,0,0,0,0,4.6575,4.6575,4.6573,4.6573,4.6568,4.6568,4.6561,4.6561,0,0,0,0,0,0,0,0,0,0,0,4.6575,4.6575,4.6575,4.6573,4.6568,4.6568,4.6561,4.6565,0,0,0,0,0,0,0,0,0,0,4.657,4.6572,4.6575,4.6575,4.6573,4.6568,4.6568,4.6565,4.6565,4.6563,0,4.6563,0,4.6562,4.6561,4.6561,0,0,0,4.6573,4.6572,4.6571,4.6575,4.6573,4.6568,4.657,4.6565,4.6564,4.6563,4.6563,4.6562,4.6562,4.6561,4.656,4.6557,4.6557,0,0,4.6573,4.6574,4.6571,4.657,4.6572,4.6571,4.657,4.6565,4.6564,4.6563,4.6562,4.6562,4.656,4.656,4.6557,4.6557,0,0,0,4.6574,4.6574,4.6573,4.6571,4.657,4.657,4.657,4.6564,4.6564,4.6562,4.6562,4.656,4.656,4.6557,4.6557,4.656,0,0,0,4.6574,4.6575,4.6573,4.6574,4.657,4.6567,4.657,4.6564,4.6564,4.6562,4.656,4.656,4.6557,4.6557,4.656,4.6561,0,0,0,4.6575,4.6575,4.6574,4.6574,4.6572,4.6567,4.6567,4.6564,4.6564,4.6561,4.656,4.6557,4.6557,4.656,4.656,4.6561,0,0,0,4.6576,4.6575,4.6575,4.6574,4.6572,4.657,4.6567,4.6565,4.6562,4.656,4.6557,4.6557,4.656,4.656,4.6561,4.6561,4.6562,0,0,4.6576,4.6575,4.6575,4.6574,4.6572,4.657,4.6569,4.6565,4.6562,4.6559,4.6559,4.656,4.656,4.6561,4.6564,4.6564,0,0,0,4.6575,4.6575,4.6574,4.6573,4.6571,4.657,4.6567,4.6565,4.6563,4.6561,4.656,4.656,4.656,4.6561,4.6561,4.6561,4.6558,4.6558,4.6558,4.6575,4.6574,4.6574,4.6573,4.6572,4.6569,4.6568,4.6566,4.6564,4.6564,4.6563,4.6565,4.6565,4.6565,4.6566,4.6563,4.6563,4.6563,4.6563,4.6574,4.6574,4.6574,4.6573,4.6572,4.6571,4.6569,4.6568,4.6567,4.6565,4.6565,4.6564,4.6566,4.6566,4.6563,4.6563,4.6563,4.6563,4.6563,4.6574,4.6574,4.6574,4.6573,4.6573,4.6572,4.6571,4.657,4.6569,4.6569,4.6568,4.6568,4.6568,4.6569,4.6569,4.6569,4.6569,4.6569,4.6569,4.6574,4.6574,4.6574,4.6574,4.6574,4.6574,4.6573,4.6572,4.6571,4.657,4.657,4.6569,4.6566,4.6566,4.6569,4.6569,4.6569,4.6569,4.6569,4.6573,4.6573,4.6574,4.6574,4.6574,4.6575,4.6574,4.6574,4.6573,4.6573,4.6572,4.6571,4.657,4.6569,4.6569,4.6572,4.6572,4.6572,4.6572,4.6573,4.6573,4.6574,4.6575,4.6575,4.6575,4.6576,4.6575,4.6575,4.6574,4.6574,4.6573,4.6573,4.6572,4.6572,4.6571,4.6575,4.6575,4.6575,4.6572,4.6573,4.6574,4.6575,4.6575,4.6576,4.6577,4.6577,4.6576,4.6575,4.6574,4.6574,4.6573,4.6573,4.6571,4.6571,4.657,0,0]}]]